Date String (YYYY-MM-DD hh:mm:ss) UTC,Instrument flags,Ambient pressure (hPa),Sample flow (lpm),Bypass flow (lpm),Sample temperature (°C),Ambient temperature (°C),ASC tube jacket temperature (°C),LED temperature (°C),Box temperature (°C),Sample RH (%),Span deviation,Mass concentration (μg/m³),Mass concentration (μg/m³),Mass concentration (μg/m³)
DateTimeUTC,F1_M11,P_M11,Q1_M11,Q2_M11,T1_M11,T2_M11,T3_M11,T4_M11,T5_M11,U1_M11,ZSPAN_M11,X0_M11,X2_M11,X1_M11
2022-05-19 12:00:00,,0817.1,5.00,0.00,30.0,28.8,00.0,38.9,31.8,09.0,0000.0,0008.40,0003.30,0001.74
2022-05-19 12:01:00,,0817.1,5.00,0.00,30.0,28.8,00.0,38.9,31.8,09.0,0000.0,0008.76,0003.33,0001.75
2022-05-19 12:02:00,,0817.1,5.01,0.00,30.0,28.8,00.0,38.9,31.8,09.1,0000.0,0009.05,0003.39,0001.75
2022-05-19 12:03:00,,0817.1,5.00,0.00,30.0,28.8,00.0,38.9,31.8,09.1,0000.0,0009.38,0003.43,0001.78
2022-05-19 12:04:00,,0817.1,4.99,0.00,30.0,28.8,00.0,38.9,31.8,09.0,0000.0,0009.49,0003.48,0001.80
2022-05-19 12:05:00,,0817.0,5.00,0.00,30.0,28.8,00.0,38.9,31.8,09.1,0000.0,0009.54,0003.48,0001.80
2022-05-19 12:06:00,,0817.2,5.00,0.00,30.0,28.8,00.0,38.9,31.8,09.1,0000.0,0009.61,0003.48,0001.79
2022-05-19 12:07:00,,0817.0,4.99,0.00,30.0,28.8,00.0,38.9,31.8,09.1,0000.0,0009.55,0003.49,0001.79
2022-05-19 12:08:00,,0817.0,4.99,0.00,30.0,28.8,00.0,38.9,31.8,09.1,0000.0,0009.20,0003.48,0001.80
2022-05-19 12:09:00,,0817.0,5.00,0.00,30.0,28.8,00.0,38.9,31.8,09.1,0000.0,0009.25,0003.48,0001.81
2022-05-19 12:10:00,,0817.0,5.01,0.00,30.0,28.8,00.0,38.9,31.8,09.1,0000.0,0009.20,0003.43,0001.81
2022-05-19 12:11:00,,0816.9,5.00,0.00,30.0,28.8,00.0,38.9,31.8,09.2,0000.0,0008.41,0003.44,0001.80
2022-05-19 12:12:00,,0816.9,4.99,0.00,30.0,28.8,00.0,38.9,31.7,09.1,0000.0,0008.21,0003.43,0001.80
2022-05-19 12:13:00,,0816.8,5.00,0.00,30.0,28.8,00.0,38.9,31.7,09.1,0000.0,0007.97,0003.39,0001.80
2022-05-19 12:14:00,,0816.9,5.01,0.00,30.0,28.8,00.0,38.9,31.7,09.2,0000.0,0007.70,0003.37,0001.79
2022-05-19 12:15:00,,0816.8,5.00,0.00,30.0,28.8,00.0,38.9,31.8,09.1,0000.0,0008.12,0003.34,0001.77
2022-05-19 12:16:00,,0816.8,5.00,0.00,30.0,28.7,00.0,38.9,31.7,09.1,0000.0,0008.35,0003.33,0001.76
2022-05-19 12:17:00,,0816.8,5.01,0.00,30.0,28.7,00.0,38.9,31.8,09.1,0000.0,0008.17,0003.28,0001.76
2022-05-19 12:18:00,,0816.8,5.00,0.00,30.0,28.7,00.0,38.9,31.8,09.1,0000.0,0008.23,0003.29,0001.76
2022-05-19 12:19:00,,0817.0,5.00,0.00,30.0,28.7,00.0,38.9,31.8,09.1,0000.0,0008.51,0003.33,0001.75
2022-05-19 12:20:00,,0816.9,5.00,0.00,30.0,28.7,00.0,38.9,31.8,09.2,0000.0,0008.90,0003.36,0001.74
2022-05-19 12:21:00,,0816.8,4.99,0.00,30.0,28.7,00.0,38.9,31.8,09.1,0000.0,0008.90,0003.39,0001.75
2022-05-19 12:22:00,,0816.8,5.00,0.00,30.0,28.7,00.0,38.9,31.8,09.3,0000.0,0008.98,0003.42,0001.77
2022-05-19 12:23:00,,0816.8,5.01,0.00,30.0,28.7,00.0,38.9,31.7,09.0,0000.0,0009.43,0003.44,0001.77
2022-05-19 12:24:00,,0816.9,5.01,0.00,30.0,28.7,00.0,38.9,31.7,09.1,0000.0,0009.70,0003.46,0001.76
2022-05-19 12:25:00,,0816.8,4.99,0.00,30.0,28.7,00.0,38.9,31.7,09.1,0000.0,0009.71,0003.46,0001.75
2022-05-19 12:26:00,,0816.8,5.00,0.00,30.0,28.7,00.0,38.9,31.8,09.2,0000.0,0009.32,0003.48,0001.76
2022-05-19 12:27:00,,0816.7,4.99,0.00,30.0,28.7,00.0,38.9,31.7,09.1,0000.0,0009.29,0003.53,0001.78
2022-05-19 12:28:00,,0816.6,5.00,0.00,30.0,28.7,00.0,38.9,31.8,09.2,0000.0,0009.49,0003.53,0001.78
2022-05-19 12:29:00,,0816.9,5.00,0.00,30.0,28.7,00.0,38.9,31.8,09.3,0000.0,0009.49,0003.52,0001.77
2022-05-19 12:30:00,,0816.7,5.00,0.00,30.0,28.7,00.0,38.9,31.8,09.2,0000.0,0009.17,0003.47,0001.78
2022-05-19 12:31:00,,0816.6,4.99,0.00,30.0,28.7,00.0,38.9,31.7,09.2,0000.0,0008.74,0003.46,0001.79
2022-05-19 12:32:00,,0816.6,5.00,0.00,30.0,28.7,00.0,38.9,31.8,09.1,0000.0,0009.13,0003.48,0001.80
2022-05-19 12:33:00,,0816.5,5.01,0.00,30.0,28.7,00.0,38.9,31.7,09.1,0000.0,0008.94,0003.41,0001.77
2022-05-19 12:34:00,,0816.5,5.00,0.00,30.0,28.7,00.0,38.9,31.8,09.2,0000.0,0008.45,0003.39,0001.78
2022-05-19 12:35:00,,0816.5,5.00,0.00,30.0,28.7,00.0,38.9,31.8,09.2,0000.0,0008.28,0003.39,0001.78
2022-05-19 12:36:00,,0816.5,4.99,0.00,30.0,28.7,00.0,38.9,31.7,09.0,0000.0,0008.33,0003.43,0001.79
2022-05-19 12:37:00,,0816.6,5.00,0.00,30.0,28.7,00.0,38.9,31.7,09.0,0000.0,0008.35,0003.43,0001.80
2022-05-19 12:38:00,,0816.6,5.00,0.00,30.0,28.7,00.0,38.9,31.8,09.2,0000.0,0008.15,0003.39,0001.80
2022-05-19 12:39:00,,0816.5,5.02,0.00,30.0,28.7,00.0,38.9,31.7,09.1,0000.0,0007.88,0003.39,0001.80
2022-05-19 12:40:00,,0816.5,4.99,0.00,30.0,28.7,00.0,38.9,31.8,09.1,0000.0,0007.73,0003.35,0001.81
2022-05-19 12:41:00,,0816.6,5.00,0.00,30.0,28.7,00.0,38.9,31.7,09.1,0000.0,0007.64,0003.34,0001.81
2022-05-19 12:42:00,,0816.6,5.01,0.00,30.0,28.7,00.0,38.9,31.8,09.3,0000.0,0007.58,0003.32,0001.80
2022-05-19 12:43:00,,0816.5,5.01,0.00,30.0,28.7,00.0,38.9,31.7,09.4,0000.0,0007.09,0003.31,0001.81
2022-05-19 12:44:00,,0816.5,4.99,0.00,30.0,28.7,00.0,38.9,31.7,09.2,0000.0,0007.43,0003.35,0001.84
2022-05-19 12:45:00,,0816.5,5.00,0.00,30.0,28.7,00.0,38.9,31.8,09.1,0000.0,0007.37,0003.33,0001.86
2022-05-19 12:46:00,,0816.5,5.01,0.00,30.0,28.7,00.0,38.9,31.7,09.2,0000.0,0007.55,0003.32,0001.87
2022-05-19 12:47:00,,0816.5,5.00,0.00,30.0,28.7,00.0,38.9,31.7,09.3,0000.0,0007.51,0003.31,0001.87
2022-05-19 12:48:00,,0816.5,5.00,0.00,30.0,28.7,00.0,38.9,31.7,09.3,0000.0,0007.43,0003.29,0001.87
2022-05-19 12:49:00,,0816.4,4.98,0.00,30.0,28.7,00.0,38.9,31.8,09.3,0000.0,0007.42,0003.29,0001.87
2022-05-19 12:50:00,,0816.4,5.00,0.00,30.0,28.7,00.0,38.9,31.8,09.3,0000.0,0007.50,0003.33,0001.88
2022-05-19 12:51:00,,0816.5,5.00,0.00,30.0,28.7,00.0,38.9,31.8,09.3,0000.0,0007.78,0003.38,0001.89
2022-05-19 12:52:00,,0816.4,5.00,0.00,30.0,28.7,00.0,38.9,31.8,09.5,0000.0,0007.88,0003.40,0001.89
2022-05-19 12:53:00,,0816.4,5.01,0.00,30.0,28.7,00.0,38.9,31.8,09.4,0000.0,0007.97,0003.41,0001.90
2022-05-19 12:54:00,,0816.4,5.00,0.00,30.0,28.7,00.0,38.9,31.7,09.4,0000.0,0008.36,0003.46,0001.90
2022-05-19 12:55:00,,0816.4,4.99,0.00,30.0,28.7,00.0,38.9,31.8,09.4,0000.0,0009.40,0003.43,0001.91
2022-05-19 12:56:00,,0816.4,4.99,0.00,30.0,28.7,00.0,38.9,31.7,09.5,0000.0,0009.47,0003.43,0001.89
2022-05-19 12:57:00,,0816.4,5.00,0.00,30.0,28.7,00.0,38.9,31.7,09.6,0000.0,0009.27,0003.44,0001.87
2022-05-19 12:58:00,,0816.3,5.00,0.00,30.0,28.7,00.0,38.9,31.8,09.6,0000.0,0009.19,0003.40,0001.87
2022-05-19 12:59:00,,0816.3,5.01,0.00,30.0,28.7,00.0,38.9,31.8,08.9,0000.0,0009.14,0003.38,0001.88
